AirNav   Pilot Hours Calculator
 
 637 users online  

4G5 Monroe County Airport
Woodsfield, Ohio, USA

GOING TO WOODSFIELD?


FAA INFORMATION EFFECTIVE 09 SEPTEMBER 2021

Location

FAA Identifier: 4G5
Lat/Long: 39-46-44.5850N 081-06-10.0100W
39-46.743083N 081-06.166833W
39.7790514,-81.1027806
(estimated)
Elevation: 1197.1 ft. / 364.9 m (surveyed)
Variation: 08W (2015)
From city: 1 mile N of WOODSFIELD, OH
Time zone: UTC -4 (UTC -5 during Standard Time)
Zip code: 43793

Airport Operations

Airport use: Open to the public
Activation date: 03/1969
Control tower: no
ARTCC: CLEVELAND CENTER
FSS: CLEVELAND FLIGHT SERVICE STATION
NOTAMs facility: CLE (NOTAM-D service available)
Attendance: IREG
Wind indicator: lighted
Segmented circle: no
Lights: ACTVT REIL RWY 25; MIRL RWY 07/25 - CTAF.
Beacon: white-green (lighted land airport)
Operates sunset to sunrise.

Airport Communications

CTAF/UNICOM: 122.8
WX AWOS-3 at MPG (18 nm E): 119.05 (304-845-2959)
  • APCH/DEP SVC PRVDD BY CLEVELAND ARTCC ON FREQS 126.95/239.30 (BELMONT RCAG).

Nearby radio navigation aids

VOR radial/distance  VOR name  Freq  Var
AIRr230/19.4BELLAIRE VOR/DME117.1007W
JPUr035/23.9PARKERSBURG VOR/DME108.6003W
ZZVr111/37.6ZANESVILLE VOR/DME114.9506W
HLGr227/37.9WHEELING VOR/DME112.2007W

 
NDB name  Hdg/Dist  Freq  Var  ID
CADIZ196/27.823907WCFX -.-. ..-. -..-

Airport Services

Fuel available: 100LL JET-A+
100LL:FULL SER ONLY CALL AMGR CELL.
Parking: tiedowns
Airframe service: NONE
Powerplant service: NONE
Bottled oxygen: NONE
Bulk oxygen: NONE

Runway Information

Runway 7/25

Dimensions: 3805 x 75 ft. / 1160 x 23 m
Surface: asphalt, in good condition
Weight bearing capacity: 
Single wheel: 18.0
Runway edge lights: medium intensity
RUNWAY 7  RUNWAY 25
Latitude: 39-46.615627N39-46.870517N
Longitude: 081-06.537858W081-05.795777W
Elevation: 1193.9 ft.1190.7 ft.
Traffic pattern: leftleft
Runway heading: 074 magnetic, 066 true254 magnetic, 246 true
Displaced threshold: 174 ft.no
Markings: nonprecision, in good conditionnonprecision, in good condition
Runway end identifier lights: yes
Touchdown point: yes, no lightsyes, no lights
Obstructions: 140 ft. trees, 1582 ft. from runway, 260 ft. right of centerline, 9:1 slope to clear
APCH RATIO 17:1 TO DTHR.
23 ft. trees, 238 ft. from runway, 140 ft. left of centerline
0-15 FT TREES & BRUSH, 0-200 FT DIST, 135-210 FT L.

Airport Ownership and Management from official FAA records

Ownership: Publicly-owned
Owner: MONROE COUNTY COMMISSIONERS
101 N MAIN ST
WOODSFIELD, OH 43793-1070
Phone 740-472-1341
Manager: DAVID DALRYMPLE
47073 STATE ROUTE 26
WOODSFIELD, OH 43793-9330
Phone 740-472-1882
CELL 740-213-3106.

Airport Operational Statistics

Aircraft based on the field: 11
Single engine airplanes: 8
Helicopters: 3
    
Aircraft operations: avg 20/week *
84% transient general aviation
10% local general aviation
5% military
1% air taxi
* for 12-month period ending 30 June 2020

Additional Remarks

OCNL DEER, BIRDS, & OTR WILDLIFE ON & INVOF ARPT.
FOR CD CTC CLEVELAND ARTCC AT 440-774-0226.

Instrument Procedures

NOTE: All procedures below are presented as PDF files. If you need a reader for these files, you should download the free Adobe Reader.

NOT FOR NAVIGATION. Please procure official charts for flight.
FAA instrument procedures published for use from 09 September 2021 at 0901Z to 07 October 2021 at 0900Z.

 
IAPs - Instrument Approach Procedures
RNAV (GPS) RWY 25   download (259KB)
VOR/DME RWY 25   download (193KB)
NOTE: Special Take-Off Minimums/Departure Procedures apply   download (164KB)

Other nearby airports with instrument procedures:

6G5 - Barnesville-Bradfield Airport (14 nm N)
2P7 - Alderman Airport (18 nm N)
KMPG - Marshall County Airport (18 nm E)
I10 - Noble County Airport (20 nm W)
KCDI - Cambridge Municipal Airport (25 nm NW)
 
Loc | Ops | Rwys | IFR | FBO | Links
Com | Nav | Svcs | Stats | Notes
Area around 4G5 (Monroe County Airport)
 
Road maps at: MapQuest Bing Google
 
Aerial photo
WARNING: Photo may not be current or correct
Aerial photo of 4G5 (Monroe County Airport)
Photo by John Carpenter
Photo taken 13-Nov-2010
looking west.

Do you have a better or more recent aerial photo of Monroe County Airport that you would like to share? If so, please send us your photo.

 
Sectional chart

 
Airport distance calculator
Flying to Monroe County Airport? Find the distance to fly.

From to 4G5

Sunrise and sunset
Times for 20-Sep-2021
 Local
(UTC-4)
 Zulu
(UTC)
Morning civil twilight06:4410:44
Sunrise07:1111:11
Sunset19:2523:25
Evening civil twilight19:5223:52

Current date and time
Zulu (UTC)  20-Sep-2021 11:45:03
Local (UTC-4)  20-Sep-2021 07:45:03
 
METAR
KCDI 
25nm NW 
201135Z AUTO 00000KT 4SM BR SCT100 16/16 A3014 RMK AO2 T01640162
KPKB 
30nm SW 
201053Z 12003KT 10SM BKN095 OVC110 21/18 A3014 RMK AO2 SLP200 T02060183 $
KHLG 
31nm NE 
201053Z 11005KT 10SM CLR 18/17 A3017 RMK AO2 SLP210 T01780167
KZZV 
38nm W 
201053Z AUTO 00000KT 10SM SCT095 19/17 A3013 RMK AO2 SLP195 T01940172
KAFJ 
43nm NE 
201056Z AUTO 00000KT 10SM FEW055 14/14 A3021 RMK AO2 SLP223 T01440139
KPHD 
44nm N 
201053Z AUTO 00000KT 10SM CLR 17/16 A3015 RMK AO2 SLP204 T01670161
TAF
KPKB 
30nm SW 
200522Z 2006/2106 00000KT P6SM BKN250 FM201000 14004KT 6SM BR FEW001 BKN180 FM201300 16005KT P6SM BKN200
KHLG 
31nm NE 
200520Z 2006/2106 10005KT P6SM SCT250 FM201500 16010KT P6SM SCT040 BKN200 FM202000 15008G16KT P6SM SCT040 BKN200 FM210000 13009KT P6SM SCT040 BKN200
NOTAMs
Click for the latest NOTAMs
NOTAMs are issued by the DoD/FAA and will open in a separate window not controlled by AirNav.

 

 
 

FBO, Fuel Providers, and Aircraft Ground Support

  
 Business Name 
 
 Contact 
 
 Services / Description 
 
Fuel Prices
 
Comments
  
 Monroe County Airport
740-472-1882 Airport management, Aviation fuel, Aircraft parking (ramp or tiedown), Hangar leasing / sales, Passenger terminal and lounge, Rental cars, Public telephone, ...

More info about Monroe County Airport
Phillips 66
100LL Jet A
FS $4.83 $4.00 
 Updated 26-Aug-2021
 
   write
FS=Full service
Update Fuel Prices
 

Would you like to see your business listed on this page?

 If your business provides an interesting product or service to pilots, flight crews, aircraft, or users of the Monroe County Airport, you should consider listing it here.  To start the listing process, click on the button below
 
Add a business
 

Other Pages about Monroe County Airport

Update a link
 
Copyright © AirNav, LLC. All rights reserved. Privacy Policy  Contact